Laurelton, New York
Current Conditions -  °F | °C
As of 7:51 AM on Sunday 21 Dec 2014 (Local Time) from KJFK Reporting Station
Overcast Overcast  
Wind Chill: 29°   Ceiling: 3100
Heat Index: 34°   Visibility: 10mi
Dew Point: 24°   Wind: 6mph
Humidity: 67%   Direction: 340°NNW
Pressure: 30.31"   Gusts: NA
Location:  40.6722°N, 73.7509°W
Report Text: KJFK 211251Z 34005KT 10SM FEW025 OVC031 01/M04 A3031 RMK AO2 SLP263 T00111044 $
Loading
Personal Weather Stations






























Interactive Weather Map New forecast layout! Learn more

10-Day Weather Forecast

Advertisements
Track Severe Weather on mobile